Location: Finney State Fishing Lake and Wildlife Area
(38.1834°N, 100.3310°W)
Time: 11:32:45
(UTC+00:00)

BlueWalker 3 - Pass Details

Date: 07 December 2022
Orbit: 499 x 517 km, 53.2° (Epoch: 29 January)

Event Time Altitude Azimuth Distance (km) Brightness Sun altitude
Rises 00:17:55 0° 320° (NW) 2,628 5.9 -11.0°
Reaches altitude 10° 00:21:17 10° 350° (N) 1,734 4.6 -11.6°
Maximum altitude 00:23:02 13° 17° (NNE) 1,573 4.1 -12.0°
Enters shadow 00:23:53 12° 31° (NNE) 1,610 4.0 -12.1°
